Vorticity
7 6 6 7 7 6 6 7 8 8 7 5 5 5 6 7 6 6 4 3 2 4 8 11 11 8 7 9 7 5 6 5 5 7 7 7 5 2 2 3 4 5
5 5 4 5 6 5 5 6 6 8 9 7 5 5 6 7 7 6 4 4 2 2 5 9 11 9 7 9 8 6 6 6 6 8 7 5 3 2 2 3 5 8
4 4 3 3 4 5 5 5 5 5 7 7 7 6 5 6 8 7 5 4 3 2 3 6 11 11 8 8 8 6 6 6 6 8 8 4 3 2 1 2 6 9
4 4 4 3 3 4 4 4 4 4 5 5 6 6 5 5 6 7 5 4 3 2 1 4 9 12 9 7 8 7 6 7 7 8 8 4 3 3 -0 2 5 6
4 4 4 4 4 4 3 4 4 4 4 4 5 5 5 5 6 7 7 5 4 2 0 1 7 12 11 8 7 6 7 7 7 8 7 3 3 2 -1 0 4 4
5 5 6 6 5 4 4 4 4 4 4 3 4 4 5 5 6 8 8 6 5 4 1 -0 3 9 12 10 7 5 7 7 6 8 7 3 2 1 -2 -1 2 3
7 7 7 7 6 6 6 5 5 5 4 3 3 3 4 5 5 7 8 7 6 6 4 1 0 6 11 12 8 5 6 7 6 7 7 3 2 1 -1 -3 -1 1
8 8 7 7 8 8 9 8 8 7 6 5 4 4 3 4 4 6 8 8 7 6 6 2 -0 3 9 13 11 6 6 7 6 7 7 4 2 2 1 -1 -2 -1
8 8 9 9 9 11 11 12 13 12 11 10 8 7 5 5 5 5 6 8 8 7 7 5 2 1 5 11 12 7 6 7 7 6 6 5 2 2 2 1 0 -1
8 8 8 9 9 11 13 15 16 17 16 15 13 11 9 7 6 6 6 7 8 8 7 6 5 2 3 8 10 9 6 7 7 6 6 5 2 2 2 1 2 0
7 7 6 7 9 12 14 15 17 19 20 20 18 16 14 11 9 7 6 6 7 8 8 7 6 3 1 4 8 9 7 6 7 6 5 6 3 2 1 1 2 1
6 5 5 6 7 9 10 11 15 19 22 24 24 25 23 20 15 11 8 7 7 7 7 7 6 4 1 3 6 9 9 7 7 6 5 5 4 2 1 1 2 1
6 5 2 3 6 8 9 11 14 15 17 19 23 27 30 31 29 22 14 9 8 8 8 7 7 5 2 2 5 9 10 8 7 6 6 6 5 3 1 1 1 1
7 6 2 3 7 8 9 12 15 15 14 13 13 13 16 22 30 33 30 21 13 10 9 8 8 6 4 3 6 9 11 10 8 7 6 6 6 4 2 1 1 1
9 7 3 5 7 8 10 13 13 14 14 12 12 12 10 9 14 22 30 33 28 22 17 13 11 7 5 5 6 9 10 9 9 8 6 5 5 5 4 2 1 1
9 6 4 6 9 9 10 8 7 9 9 8 8 10 10 10 10 10 14 20 25 27 26 23 19 14 9 7 7 8 9 9 8 8 6 5 6 5 5 4 3 1
10 6 5 8 9 8 7 6 5 6 6 4 4 3 2 7 13 14 11 11 12 16 20 21 22 20 14 11 9 7 8 9 8 8 7 5 6 6 6 4 3 2
11 5 7 11 10 5 4 4 3 3 3 3 3 0 -2 2 7 9 10 11 10 11 12 12 13 17 16 13 10 8 9 10 9 8 7 5 5 7 7 5 4 2
8 4 8 13 11 6 4 3 2 3 4 4 0 -3 -0 4 4 2 5 9 10 10 12 12 11 12 13 12 11 10 11 12 10 8 6 5 5 7 6 5 5 4
5 6 9 10 8 6 6 4 4 5 5 3 1 -2 -0 1 -0 -1 2 5 6 5 8 12 14 14 12 10 10 10 11 12 12 9 7 5 5 6 7 6 5 6
6 7 7 6 7 9 9 5 5 7 5 2 2 1 -1 -2 -1 2 4 3 3 4 5 6 10 15 16 13 10 8 8 11 12 10 8 7 6 6 8 8 6 6
8 8 7 6 5 8 10 9 8 6 3 1 1 1 -0 -0 1 3 3 1 0 1 2 3 3 5 10 14 14 11 8 7 11 13 10 8 8 9 8 8 8 7
9 8 7 6 5 5 8 10 9 5 2 1 0 -0 1 4 5 4 2 2 2 1 2 4 2 -1 2 7 10 11 11 9 8 11 11 8 7 8 8 7 8 9
5 5 5 4 4 4 6 8 7 4 2 -1 -2 1 5 8 9 7 4 3 6 5 3 1 -1 -3 -1 2 4 6 8 11 11 9 10 11 10 8 8 7 7 9
5 7 7 7 6 4 4 5 4 2 1 -1 -0 3 4 5 6 5 2 1 3 5 7 10 12 9 2 -3 -1 2 1 2 8 10 10 12 14 12 9 9 8 9
10 13 15 18 17 11 7 5 2 0 0 -1 0 3 3 1 1 1 1 2 1 0 3 9 16 23 21 8 -4 -4 0 -1 -1 4 6 9 13 15 13 11 10 9
Height
5920 5921 5922 5923 5924 5925 5926 5927 5928 5929 5930 5931 5932 5933 5934 5935 5936 5937 5937 5937 5938 5938 5937 5937 5937 5938 5938 5939 5939 5939 5939 5939 5938 5938 5938 5938 5937 5937 5936 5936 5935 5935
5919 5920 5921 5922 5922 5923 5924 5925 5926 5927 5928 5929 5930 5931 5932 5933 5934 5935 5935 5936 5936 5936 5936 5936 5936 5936 5937 5937 5938 5938 5938 5938 5938 5938 5937 5937 5936 5936 5936 5935 5935 5934
5917 5919 5920 5920 5921 5921 5922 5923 5924 5925 5926 5927 5929 5930 5930 5931 5932 5933 5934 5934 5935 5935 5935 5935 5935 5935 5935 5936 5936 5937 5937 5937 5937 5937 5936 5936 5936 5936 5935 5935 5934 5933
5916 5917 5918 5919 5919 5920 5920 5921 5922 5923 5924 5925 5926 5927 5928 5930 5931 5931 5932 5933 5933 5933 5934 5934 5934 5934 5934 5934 5935 5935 5936 5936 5936 5936 5935 5935 5935 5935 5935 5934 5933 5932
5915 5916 5917 5917 5918 5919 5919 5920 5920 5921 5922 5923 5923 5925 5926 5928 5929 5930 5930 5931 5931 5932 5932 5932 5933 5933 5933 5933 5933 5934 5934 5934 5934 5934 5934 5934 5934 5934 5934 5933 5933 5932
5913 5914 5915 5915 5916 5917 5917 5918 5918 5919 5920 5920 5921 5923 5924 5926 5927 5928 5928 5929 5929 5930 5930 5931 5931 5931 5931 5931 5931 5932 5932 5932 5933 5933 5933 5933 5933 5933 5933 5932 5931 5931
5911 5912 5912 5913 5914 5914 5915 5916 5916 5917 5918 5918 5919 5920 5922 5923 5925 5926 5926 5927 5927 5928 5928 5929 5929 5929 5930 5929 5930 5930 5930 5930 5930 5931 5931 5931 5931 5931 5931 5931 5930 5929
5909 5910 5910 5911 5911 5912 5913 5913 5914 5915 5915 5916 5918 5918 5919 5921 5922 5923 5924 5924 5925 5926 5926 5927 5927 5927 5928 5928 5928 5928 5928 5928 5928 5928 5929 5929 5929 5929 5929 5929 5928 5927
5907 5908 5909 5909 5910 5910 5911 5911 5912 5912 5913 5914 5915 5916 5917 5918 5919 5921 5921 5922 5923 5923 5924 5924 5924 5925 5925 5926 5926 5926 5926 5926 5926 5926 5927 5927 5927 5927 5927 5927 5926 5926
5905 5906 5907 5907 5907 5908 5908 5908 5909 5909 5910 5911 5912 5913 5914 5916 5917 5918 5919 5919 5920 5921 5921 5921 5922 5922 5923 5923 5923 5923 5924 5924 5924 5924 5924 5924 5925 5925 5925 5925 5924 5924
5904 5904 5905 5905 5905 5905 5906 5906 5906 5907 5908 5908 5909 5910 5911 5912 5914 5915 5916 5917 5917 5917 5918 5918 5919 5919 5920 5920 5921 5921 5921 5922 5922 5922 5922 5922 5922 5923 5923 5923 5922 5922
5902 5903 5903 5903 5903 5903 5904 5904 5905 5905 5906 5906 5907 5908 5908 5909 5910 5911 5913 5913 5913 5914 5914 5915 5916 5916 5917 5918 5918 5918 5919 5919 5920 5920 5919 5920 5920 5920 5920 5920 5920 5920
5900 5901 5901 5901 5901 5901 5902 5902 5903 5903 5904 5905 5905 5905 5906 5906 5907 5908 5909 5909 5910 5910 5911 5912 5913 5913 5914 5915 5915 5915 5916 5917 5917 5917 5917 5917 5918 5918 5918 5918 5918 5918
5898 5899 5899 5899 5899 5900 5900 5901 5901 5902 5903 5903 5903 5904 5904 5904 5904 5904 5905 5905 5906 5907 5908 5909 5910 5911 5911 5912 5913 5913 5913 5914 5914 5914 5914 5915 5915 5915 5915 5915 5915 5915
5896 5896 5897 5897 5898 5898 5899 5900 5900 5900 5901 5901 5902 5902 5902 5902 5902 5902 5902 5902 5903 5903 5904 5905 5907 5908 5909 5909 5910 5910 5910 5911 5911 5911 5911 5912 5912 5913 5913 5913 5913 5912
5893 5894 5894 5895 5896 5897 5897 5898 5898 5899 5899 5900 5900 5900 5900 5900 5900 5901 5901 5901 5901 5901 5901 5902 5904 5905 5906 5906 5907 5907 5907 5907 5908 5908 5908 5908 5909 5910 5910 5910 5910 5910
5890 5891 5892 5893 5894 5894 5895 5896 5896 5897 5897 5898 5898 5899 5899 5899 5899 5899 5899 5899 5899 5899 5900 5900 5901 5902 5903 5903 5904 5904 5904 5904 5904 5905 5905 5905 5906 5907 5907 5907 5907 5907
5888 5889 5890 5891 5892 5892 5893 5893 5894 5895 5895 5896 5896 5897 5897 5898 5898 5898 5898 5898 5898 5898 5898 5899 5899 5899 5900 5901 5900 5900 5901 5901 5901 5901 5902 5902 5903 5903 5903 5903 5904 5904
5884 5885 5887 5888 5889 5890 5890 5891 5891 5892 5893 5894 5894 5895 5895 5896 5896 5896 5897 5897 5897 5897 5897 5897 5897 5897 5898 5898 5897 5897 5897 5898 5898 5898 5898 5898 5899 5899 5900 5900 5900 5900
5881 5882 5884 5885 5886 5887 5887 5888 5889 5889 5890 5891 5891 5892 5893 5893 5894 5894 5895 5895 5895 5895 5895 5895 5895 5895 5895 5895 5894 5894 5894 5894 5895 5895 5894 5894 5895 5895 5896 5896 5897 5897
5878 5880 5881 5882 5883 5884 5884 5885 5886 5887 5887 5888 5889 5889 5890 5891 5891 5891 5892 5892 5893 5893 5893 5893 5893 5893 5893 5892 5892 5891 5890 5891 5891 5891 5891 5891 5891 5892 5892 5893 5893 5893
5876 5877 5878 5880 5881 5881 5882 5883 5883 5884 5885 5885 5886 5886 5887 5888 5888 5888 5889 5889 5889 5890 5890 5891 5891 5891 5891 5890 5889 5888 5887 5886 5887 5887 5888 5887 5887 5888 5888 5889 5889 5889
5874 5875 5876 5877 5878 5879 5879 5880 5881 5881 5882 5882 5883 5883 5884 5884 5884 5885 5885 5885 5886 5886 5887 5887 5888 5888 5888 5887 5886 5885 5884 5883 5883 5884 5884 5884 5883 5884 5884 5884 5884 5884
5872 5872 5873 5874 5874 5875 5876 5877 5878 5878 5879 5879 5879 5880 5880 5880 5880 5881 5881 5881 5881 5882 5882 5883 5883 5883 5883 5883 5883 5882 5881 5880 5880 5879 5879 5879 5879 5879 5879 5879 5880 5880
5868 5869 5869 5870 5871 5872 5873 5874 5874 5875 5875 5875 5876 5876 5876 5876 5876 5876 5877 5877 5878 5878 5878 5879 5879 5879 5879 5879 5878 5877 5877 5876 5876 5875 5875 5875 5875 5876 5876 5876 5876 5876
5864 5865 5866 5867 5868 5869 5869 5870 5870 5871 5871 5871 5872 5872 5872 5872 5872 5873 5873 5873 5874 5874 5874 5875 5874 5874 5874 5874 5873 5872 5871 5871 5871 5871 5871 5872 5872 5872 5872 5872 5872 5872